www.pogodaiklimat.ru

Погода и климат >> Архив погоды >> Аргентина >> Las Lomitas


ПОГОДА в Las Lomitas

  • Прогноз погоды в Las Lomitas
  • Монитор погоды в Las Lomitas
  • Климат города

АРХИВ ПОГОДЫ в Las Lomitas

Время (UTC), дата Ветер
(напр.,м/с)
 
Видим.   Явления Облачность Т
(С)
Тd
(С)
f
(%)
Тe
(С)
Тes
(С)
Комфортность P
(гПа)
Po
(гПа)
Тmin
(С)
Tmax
(С)
R
(мм)
R24
(мм)
S
(см)
09 16.01 штиль 0 20 км ясно +20.3 +19.5 95 +24 +24 комфорт 1012.3 997.4
12 16.01 СВ 2 20 км 1/1 600 м
[Cu hum]
+26.4 +21.3 74 +34 +40 очень
душно
1014.0 999.2 +20.3 +26.4
15 16.01 ЮЗ 1 20 км 5/5 1050 м
[Cu hum]
+30.5 +18.4 48 +35 +47 очень
душно
1013.2 998.5
18 16.01 ЮЗ 1 20 км 4/4 1500 м
[Cu hum]
+34.2 +19.2 41 +39 +52 опасность
солнечного
удара
1013.3 998.5
21 16.01 ЮЗ 2 20 км 3/3 1500 м
[Cu hum]
+34.6 +19.0 40 +40 +42 очень
душно
1010.1 995.3
00 17.01 ЮВ 1 20 км ясно +29.6 +20.0 56 +36 +36 очень
душно
1011.4 996.6 +26.4 +34.6
09 17.01 штиль 0 20 км 6/0
[Ac trans]
+23.6 +21.2 86 1010.2
12 17.01 С 2 20 км 3/0
[Ci fib]
+28.8 +22.7 70 +38 +45 очень
душно
1011.0 996.2 +23.6 +29.6
15 17.01 С 2 20 км 4/4 1500 м
[Cu hum]
+36.5 +19.8 38 +42 +54 опасность
перегрева
1009.9 995.3
18 17.01 СВ 2 20 км 6/6 900 м
[Cu hum]
+37.8 +20.2 36 +44 +51 опасность
перегрева
1007.5 993.0
21 17.01 СВ 2 20 км 3/3 1350 м
[Cu med, cong]
+38.6 +19.4 33 +43 +46 опасность
перегрева
1004.4 989.8
00 18.01 ЮВ 1 20 км 6/6 600 м
[Sc]
+32.8 +20.7 49 +40 +40 очень
душно
1006.1 991.6 +28.8 +40.0
09 18.01 СЗ 1 20 км 9/9 450 м
[Cu Sc]
+25.6 +22.4 83 +34 +34 очень
душно
1012.4 997.8
12 18.01 штиль 0 20 км в посл. час морось 10/10 450 м
[St]
+26.4 +22.9 81 +35 +35 очень
душно
1014.0 999.3 +25.6 +32.8 0.0
15 18.01 ЮВ 2 20 км 10/10 300 м
[St]
+25.6 +22.7 84 +34 +34 очень
душно
1016.1 1001.3
18 18.01 ЮВ 3 10 км слабая морось 10/10 210 м
[Frnb]
+25.0 +23.0 89 +33 +33 очень
душно
1012.6 997.7 0.0
21 18.01 ЮВ 3 20 км в посл. час морось 10/10 300 м
[St]
+26.6 +22.5 78 +35 +35 очень
душно
1010.1 995.2
00 19.01 ЮВ 3 20 км 10/10 300 м
[St]
+24.8 +22.4 87 +32 +32 очень
душно
1012.3 997.4 +24.8 +27.0
09 19.01 ЮВ 1 6000 м дождь 10/6 210 м
[Frnb As op]
+22.0 +21.1 95 +28 +28 душно 1013.3 998.4
12 19.01 Ю 2 20 км в посл. час дождь 10/10 300 м
[St]
+22.4 +21.5 95 +30 +30 очень
душно
1014.8 999.7 +22.0 +24.8 12
15 19.01 ЮВ 1 20 км 10/10 300 м
[St]
+24.4 +22.3 88 +32 +32 очень
душно
1014.1 999.2
18 19.01 штиль 0 20 км 10/10 300 м
[St]
+26.6 +22.8 80 +35 +35 очень
душно
1015.3 1000.4
21 19.01 ЮВ 1 20 км в посл. час морось 8/8 450 м
[Sc]
+26.8 +23.9 84 +37 +38 очень
душно
1013.4 998.4
00 20.01 ЮВ 1 20 км {морось} 4/4 300 м
[St]
+25.6 +24.2 92 +35 +35 очень
душно
1014.0 999.0 +22.4 +28.5 0.0
09 20.01 СВ 1 20 км 10/10 300 м
[St]
+24.3 +23.6 96 +33 +33 очень
душно
1009.8 995.0
12 20.01 СВ 2 20 км 9/9 450 м
[Cu hum]
+25.5 +23.5 89 +35 +35 очень
душно
1010.9 996.1 +24.3 +25.6 0.0
15 20.01 СВ 3 20 км 8/8 900 м
[Cu hum]
+30.4 +23.1 65 +41 +44 опасность
перегрева
1010.2 995.4
18 20.01 СЗ 3 20 км 6/6 900 м
[Cu hum]
+32.2 +22.2 56 +41 +48 опасность
перегрева
1007.6 992.9
21 20.01 С 1 20 км слабый дождь 9/4 1050 м
[Cu med, cong As op]
+26.8 +25.4 92 +39 +40 очень
душно
1006.1 991.3
00 21.01 штиль 0 20 км слабый дождь 10/0 900 м
[As op]
+26.8 +25.4 92 +39 +39 очень
душно
1008.1 993.3 +25.5 +33.5 5
09 21.01 штиль 0 17 км слабая морось {дождь} 10/10 270 м
[Frnb]
+23.8 +23.2 96 +32 +32 очень
душно
1009.7 994.9
12 21.01 штиль 0 17 км морось {дождь} 10/10 270 м
[Frnb]
+23.8 +23.2 96 +32 +32 очень
душно
1011.9 997.0 +23.8 +26.8 16
15 21.01 СЗ 1 20 км в посл. час морось 10/10 300 м
[St]
+26.0 +24.9 94 +37 +37 очень
душно
1010.9 996.1
18 21.01 СВ 3 20 км {морось} 4/4 900 м
[Cu hum]
+31.2 +24.1 66 +43 +52 опасность
перегрева
1005.0 990.2 2
21 21.01 СЗ 2 20 км 4/4 1050 м
[Sc diur, vesp]
+31.0 +23.9 66 +43 +44 опасность
перегрева
1003.9 989.3
00 22.01 Ю 1 20 км 3/0
[Ci fib]
+27.0 +24.3 85 +38 +38 очень
душно
1004.4 989.6 +23.8 +32.5
09 22.01 штиль 0 20 км в посл. час дождь 1/0
[Ac trans]
+24.2 +23.3 95 +32 +32 очень
душно
1004.6 990.0
12 22.01 СВ 1 20 км {дождь} 4/0
[Cs]
+28.0 +25.2 85 +41 +48 опасность
перегрева
1006.2 991.6 +24.2 +28.0 3
15 22.01 СЗ 3 20 км 5/5 900 м
[Cu hum]
+33.2 +23.9 58 +45 +53 опасность
перегрева
1005.3 990.8
18 22.01 СВ 2 20 км 5/5 900 м
[Cu hum Ci]
+35.4 +20.8 43 +42 +51 опасность
перегрева
1005.6 991.0
21 22.01 СВ 1 20 км 8/8 450 м
[Cu hum Ci]
+33.8 +24.2 57 +46 +46 опасность
перегрева
1003.5 988.9
00 23.01 штиль 0 20 км 6/0
[Ac As]
+31.4 +26.2 74 +47 +47 опасность
перегрева
1004.3 989.7 +28.0 +35.4

 

Местоположение метеостанции Las Lomitas (Аргентина): широта -24.70 долгота -60.58 высота над уровнем моря 130 м.

В архиве по умолчанию представлена погода в Las Lomitas за последнюю неделю. Архивные данные за месяц целиком и за предыдущие месяцы, начиная с января 2011 года, Вы можете получить, выбрав интересующий диапазон дат из раскрывающегося списка и нажав кнопку "Ввод!".

Внимание! Время в таблицах - всемирное. Для получения местного времени необходимо прибавить поправку, которая в Las Lomitas равна -3 ч.

Смотрите также архив погоды в соседних городах и на ближайших метеорологических станциях:

Погода в Gral. Bruguez (Парагвай) (177 км)
Погода в Pozo Colorado (Парагвай) (225 км)
Погода в Presidencia Roque Saenz Pena (Аргентина) (226 км)
Погода в Prats-Gil (Парагвай) (241 км)
Погода в Formosa (Аргентина) (289 км)
Погода в Mariscal Estigar (Парагвай) (299 км)
Погода в Asuncion (Парагвай) (316 км)
Погода в Pilar (Парагвай) (330 км)
Погода в Resistencia (Аргентина) (342 км)
Погода в Corrientes (Аргентина) (356 км)

Пояснения к столбцам:

Ветер - указаны скорость ветра в м/с - средняя за 10 мин, порывы в срок и между сроками (в фигурных скобках) и направление, откуда дует ветер: С - северный, СВ - северо-восточный, В - восточный, ЮВ - юго-восточный, Ю - южный, ЮЗ - юго-западный, З - западный, СЗ - северо-западный.
Видимость - горизонтальная дальность видимости в метрах или километрах. При видимости от 1 до 10 км при отсутствии осадков обычно наблюдается дымка, при ухудшении видимости до 1 км и менее - туман. В сухую погоду видимость может ухудшаться дымом, пылью или мглою.
Явления - указаны атмосферные явления, наблюдавшиеся в срок или в последний час перед сроком; фигурными скобками обозначены явления, наблюдавшиеся между сроками (за 1-3 часа до срока); квадратными скобками обозначены град или гололедные отложения с указанием их диаметра в мм.
Облачность - указаны через наклонную черту общая и нижняя облачность в баллах и высота нижней границы облаков в метрах; квадратными скобками обозначены формы облаков: Ci - перистые, Cs - перисто-слоистые, Cc - перисто-кучевые, Ac - высококучевые, As - высокослоистые, Sc - слоисто-кучевые, Ns - слоисто-дождевые, Cu - кучевые, Cb - кучево-дождевые. Подробнее классификацию облаков см. в Атласе облаков (PDF).
T - Температура воздуха - температура, измеренная на высоте 2 м над землей.
Td - Температура точки росы - температура, при понижении до которой содержащийся в воздухе водяной пар достигнет насыщения.
f - Относительная влажность воздуха - влажноcть воздуха, измеренная на высоте 2 м над землей.
Te - Эффективная температура - температура, которую ощущает одетый по сезону человек в тени. Характеристика душности погоды. При расчете учитывается влияние влажности воздуха и скорости ветра на теплоощущения человека.
Tes - Эффективная температура на солнце - температура, которую ощущает человек, с поправкой на солнечный нагрев. Характеристика знойности погоды. Зависит от высоты солнца над горизонтом, облачности и скорости ветра. Ночью, в пасмурную погоду, а также при ветре 12 м/с и более поправка равна нулю.
P - Атмосферное давление - приведенное к уровню моря атмосферное давление.
Po - Атмосферное давление - измеренное на уровне метеостанции атмосферное давление.
Tmin - Минимальная температура - минимум температуры воздуха на высоте 2 м над землей.
Tmax - Максимальная температура - максимум температуры воздуха на высоте 2 м над землей.
R - Количество осадков - Количество выпавших осадков за период времени, мм. При наведении курсора мыши на число - период времени, за который выпало указанное количество осадков.
R24 - Количество осадков - Количество выпавших осадков за 24 часа, мм.
S - Снежный покров - Высота снежного покрова, см. При наведении курсора мыши на число - состояние снежного покрова и степень покрытия местности в баллах.